owner,sensor,date,latitude,longitude,vertical_datum,sea_water_temperature,qcFlag 
SCCF RECON,ioos:station:SCCF:11:1,2016-03-09T21:00:00Z,26.4679,-82.0631,1.74,-9999.0,2 
SCCF RECON,ioos:station:SCCF:11:1,2016-03-09T22:00:00Z,26.4679,-82.0631,1.74,-9999.0,2 
SCCF RECON,ioos:station:SCCF:11:1,2016-03-09T23:00:00Z,26.4679,-82.0631,1.74,-9999.0,2 
SCCF RECON,ioos:station:SCCF:11:1,2016-03-10T00:00:00Z,26.4679,-82.0631,1.74,-9999.0,2 
SCCF RECON,ioos:station:SCCF:11:1,2016-03-10T01:00:00Z,26.4679,-82.0631,1.74,-9999.0,2 
SCCF RECON,ioos:station:SCCF:11:1,2016-03-10T02:00:00Z,26.4679,-82.0631,1.74,-9999.0,2 
SCCF RECON,ioos:station:SCCF:11:1,2016-03-10T03:00:00Z,26.4679,-82.0631,1.74,-9999.0,2 
SCCF RECON,ioos:station:SCCF:11:1,2016-03-10T04:00:00Z,26.4679,-82.0631,1.74,-9999.0,2 
SCCF RECON,ioos:station:SCCF:11:1,2016-03-10T05:00:00Z,26.4679,-82.0631,1.74,-9999.0,2 
SCCF RECON,ioos:station:SCCF:11:1,2016-03-10T06:00:00Z,26.4679,-82.0631,1.74,-9999.0,2 
SCCF RECON,ioos:station:SCCF:11:1,2016-03-10T07:00:00Z,26.4679,-82.0631,1.74,-9999.0,2 
SCCF RECON,ioos:station:SCCF:11:1,2016-03-10T08:00:00Z,26.4679,-82.0631,1.74,-9999.0,2 
SCCF RECON,ioos:station:SCCF:11:1,2016-03-10T09:00:00Z,26.4679,-82.0631,1.74,-9999.0,2 
SCCF RECON,ioos:station:SCCF:11:1,2016-03-10T10:00:00Z,26.4679,-82.0631,1.74,-9999.0,2 
SCCF RECON,ioos:station:SCCF:11:1,2016-03-10T11:00:00Z,26.4679,-82.0631,1.74,-9999.0,2 
SCCF RECON,ioos:station:SCCF:11:1,2016-03-10T12:00:00Z,26.4679,-82.0631,1.74,-9999.0,2 
SCCF RECON,ioos:station:SCCF:11:1,2016-03-10T13:00:00Z,26.4679,-82.0631,1.74,-9999.0,2 
SCCF RECON,ioos:station:SCCF:11:1,2016-03-10T14:00:00Z,26.4679,-82.0631,1.74,-9999.0,2 
SCCF RECON,ioos:station:SCCF:11:1,2016-03-10T15:00:00Z,26.4679,-82.0631,1.74,20.81,2 
SCCF RECON,ioos:station:SCCF:11:1,2016-03-10T16:00:00Z,26.4679,-82.0631,1.74,21.3,2 
SCCF RECON,ioos:station:SCCF:11:1,2016-03-10T17:00:00Z,26.4679,-82.0631,1.74,20.92,2 
SCCF RECON,ioos:station:SCCF:11:1,2016-03-10T18:00:00Z,26.4679,-82.0631,1.74,20.91,2 
SCCF RECON,ioos:station:SCCF:11:1,2016-03-10T19:00:00Z,26.4679,-82.0631,1.74,21.01,2 
SCCF RECON,ioos:station:SCCF:11:1,2016-03-10T20:00:00Z,26.4679,-82.0631,1.74,21.08,2 
SCCF RECON,ioos:station:SCCF:11:1,2016-03-10T21:00:00Z,26.4679,-82.0631,1.74,22.9,2 
SCCF RECON,ioos:station:SCCF:11:1,2016-03-10T22:00:00Z,26.4679,-82.0631,1.74,22.89,2 
SCCF RECON,ioos:station:SCCF:11:1,2016-03-10T23:00:00Z,26.4679,-82.0631,1.74,22.88,2 
SCCF RECON,ioos:station:SCCF:11:1,2016-03-11T00:00:00Z,26.4679,-82.0631,1.74,22.89,2 
SCCF RECON,ioos:station:SCCF:11:1,2016-03-11T01:00:00Z,26.4679,-82.0631,1.74,22.87,2 
SCCF RECON,ioos:station:SCCF:11:1,2016-03-11T02:00:00Z,26.4679,-82.0631,1.74,22.5,2 
SCCF RECON,ioos:station:SCCF:11:1,2016-03-11T03:00:00Z,26.4679,-82.0631,1.74,22.02,2 
SCCF RECON,ioos:station:SCCF:11:1,2016-03-11T04:00:00Z,26.4679,-82.0631,1.74,21.87,2 
SCCF RECON,ioos:station:SCCF:11:1,2016-03-11T05:00:00Z,26.4679,-82.0631,1.74,21.65,2 
SCCF RECON,ioos:station:SCCF:11:1,2016-03-11T06:00:00Z,26.4679,-82.0631,1.74,21.52,2 
SCCF RECON,ioos:station:SCCF:11:1,2016-03-11T07:00:00Z,26.4679,-82.0631,1.74,21.37,2 
SCCF RECON,ioos:station:SCCF:11:1,2016-03-11T08:00:00Z,26.4679,-82.0631,1.74,21.29,2 
SCCF RECON,ioos:station:SCCF:11:1,2016-03-11T09:00:00Z,26.4679,-82.0631,1.74,21.45,2 
SCCF RECON,ioos:station:SCCF:11:1,2016-03-11T10:00:00Z,26.4679,-82.0631,1.74,21.59,2 
SCCF RECON,ioos:station:SCCF:11:1,2016-03-11T11:00:00Z,26.4679,-82.0631,1.74,21.67,2 
SCCF RECON,ioos:station:SCCF:11:1,2016-03-11T12:00:00Z,26.4679,-82.0631,1.74,21.64,2 
SCCF RECON,ioos:station:SCCF:11:1,2016-03-11T13:00:00Z,26.4679,-82.0631,1.74,21.62,2 
SCCF RECON,ioos:station:SCCF:11:1,2016-03-11T14:00:00Z,26.4679,-82.0631,1.74,21.67,2 
SCCF RECON,ioos:station:SCCF:11:1,2016-03-11T15:00:00Z,26.4679,-82.0631,1.74,21.71,2 
SCCF RECON,ioos:station:SCCF:11:1,2016-03-11T16:00:00Z,26.4679,-82.0631,1.74,21.81,2 
SCCF RECON,ioos:station:SCCF:11:1,2016-03-11T17:00:00Z,26.4679,-82.0631,1.74,21.68,2 
SCCF RECON,ioos:station:SCCF:11:1,2016-03-11T18:00:00Z,26.4679,-82.0631,1.74,21.55,2 
SCCF RECON,ioos:station:SCCF:11:1,2016-03-11T19:00:00Z,26.4679,-82.0631,1.74,21.64,2 
SCCF RECON,ioos:station:SCCF:11:1,2016-03-11T20:00:00Z,26.4679,-82.0631,1.74,21.65,2 
SCCF RECON,ioos:station:SCCF:11:1,2016-03-11T21:00:00Z,26.4679,-82.0631,1.74,22.35,2 
SCCF RECON,ioos:station:SCCF:11:1,2016-03-11T22:00:00Z,26.4679,-82.0631,1.74,23.29,2 
SCCF RECON,ioos:station:SCCF:11:1,2016-03-11T23:00:00Z,26.4679,-82.0631,1.74,23.21,2 
SCCF RECON,ioos:station:SCCF:11:1,2016-03-12T00:00:00Z,26.4679,-82.0631,1.74,23.08,2 
SCCF RECON,ioos:station:SCCF:11:1,2016-03-12T01:00:00Z,26.4679,-82.0631,1.74,23.12,2 
SCCF RECON,ioos:station:SCCF:11:1,2016-03-12T02:00:00Z,26.4679,-82.0631,1.74,23.11,2 
SCCF RECON,ioos:station:SCCF:11:1,2016-03-12T03:00:00Z,26.4679,-82.0631,1.74,22.62,2 
SCCF RECON,ioos:station:SCCF:11:1,2016-03-12T04:00:00Z,26.4679,-82.0631,1.74,22.54,2 
SCCF RECON,ioos:station:SCCF:11:1,2016-03-12T05:00:00Z,26.4679,-82.0631,1.74,22.15,2 
SCCF RECON,ioos:station:SCCF:11:1,2016-03-12T06:00:00Z,26.4679,-82.0631,1.74,22.2,2 
SCCF RECON,ioos:station:SCCF:11:1,2016-03-12T07:00:00Z,26.4679,-82.0631,1.74,22.0,2 
SCCF RECON,ioos:station:SCCF:11:1,2016-03-12T08:00:00Z,26.4679,-82.0631,1.74,21.79,2 
SCCF RECON,ioos:station:SCCF:11:1,2016-03-12T09:00:00Z,26.4679,-82.0631,1.74,21.75,2 
SCCF RECON,ioos:station:SCCF:11:1,2016-03-12T10:00:00Z,26.4679,-82.0631,1.74,21.87,2 
SCCF RECON,ioos:station:SCCF:11:1,2016-03-12T11:00:00Z,26.4679,-82.0631,1.74,21.9,2 
SCCF RECON,ioos:station:SCCF:11:1,2016-03-12T12:00:00Z,26.4679,-82.0631,1.74,22.05,2 
SCCF RECON,ioos:station:SCCF:11:1,2016-03-12T13:00:00Z,26.4679,-82.0631,1.74,22.09,2 
SCCF RECON,ioos:station:SCCF:11:1,2016-03-12T14:00:00Z,26.4679,-82.0631,1.74,22.1,2 
SCCF RECON,ioos:station:SCCF:11:1,2016-03-12T15:00:00Z,26.4679,-82.0631,1.74,22.18,2 
SCCF RECON,ioos:station:SCCF:11:1,2016-03-12T16:00:00Z,26.4679,-82.0631,1.74,22.11,2 
SCCF RECON,ioos:station:SCCF:11:1,2016-03-12T17:00:00Z,26.4679,-82.0631,1.74,22.65,2 
SCCF RECON,ioos:station:SCCF:11:1,2016-03-12T18:00:00Z,26.4679,-82.0631,1.74,22.07,2 
SCCF RECON,ioos:station:SCCF:11:1,2016-03-12T19:00:00Z,26.4679,-82.0631,1.74,22.64,2 
SCCF RECON,ioos:station:SCCF:11:1,2016-03-12T20:00:00Z,26.4679,-82.0631,1.74,22.32,2 
SCCF RECON,ioos:station:SCCF:11:1,2016-03-12T21:00:00Z,26.4679,-82.0631,1.74,22.29,2 
SCCF RECON,ioos:station:SCCF:11:1,2016-03-12T22:00:00Z,26.4679,-82.0631,1.74,23.15,2 
SCCF RECON,ioos:station:SCCF:11:1,2016-03-12T23:00:00Z,26.4679,-82.0631,1.74,23.57,2 
SCCF RECON,ioos:station:SCCF:11:1,2016-03-13T00:00:00Z,26.4679,-82.0631,1.74,23.58,2 
SCCF RECON,ioos:station:SCCF:11:1,2016-03-13T01:00:00Z,26.4679,-82.0631,1.74,23.47,2 
SCCF RECON,ioos:station:SCCF:11:1,2016-03-13T02:00:00Z,26.4679,-82.0631,1.74,23.6,2 
SCCF RECON,ioos:station:SCCF:11:1,2016-03-13T03:00:00Z,26.4679,-82.0631,1.74,23.49,2 
SCCF RECON,ioos:station:SCCF:11:1,2016-03-13T04:00:00Z,26.4679,-82.0631,1.74,23.28,2 
SCCF RECON,ioos:station:SCCF:11:1,2016-03-13T05:00:00Z,26.4679,-82.0631,1.74,22.81,2 
SCCF RECON,ioos:station:SCCF:11:1,2016-03-13T06:00:00Z,26.4679,-82.0631,1.74,22.58,2 
SCCF RECON,ioos:station:SCCF:11:1,2016-03-13T07:00:00Z,26.4679,-82.0631,1.74,22.55,2 
SCCF RECON,ioos:station:SCCF:11:1,2016-03-13T08:00:00Z,26.4679,-82.0631,1.74,22.4,2 
SCCF RECON,ioos:station:SCCF:11:1,2016-03-13T09:00:00Z,26.4679,-82.0631,1.74,22.38,2 
SCCF RECON,ioos:station:SCCF:11:1,2016-03-13T10:00:00Z,26.4679,-82.0631,1.74,22.31,2 
SCCF RECON,ioos:station:SCCF:11:1,2016-03-13T11:00:00Z,26.4679,-82.0631,1.74,22.34,2 
SCCF RECON,ioos:station:SCCF:11:1,2016-03-13T12:00:00Z,26.4679,-82.0631,1.74,22.29,2 
SCCF RECON,ioos:station:SCCF:11:1,2016-03-13T13:00:00Z,26.4679,-82.0631,1.74,22.39,2 
SCCF RECON,ioos:station:SCCF:11:1,2016-03-13T14:00:00Z,26.4679,-82.0631,1.74,22.57,2 
SCCF RECON,ioos:station:SCCF:11:1,2016-03-13T15:00:00Z,26.4679,-82.0631,1.74,22.5,2 
SCCF RECON,ioos:station:SCCF:11:1,2016-03-13T16:00:00Z,26.4679,-82.0631,1.74,22.52,2 
SCCF RECON,ioos:station:SCCF:11:1,2016-03-13T17:00:00Z,26.4679,-82.0631,1.74,22.66,2 
SCCF RECON,ioos:station:SCCF:11:1,2016-03-13T18:00:00Z,26.4679,-82.0631,1.74,22.83,2 
SCCF RECON,ioos:station:SCCF:11:1,2016-03-13T19:00:00Z,26.4679,-82.0631,1.74,22.69,2 
SCCF RECON,ioos:station:SCCF:11:1,2016-03-13T20:00:00Z,26.4679,-82.0631,1.74,22.97,2 
SCCF RECON,ioos:station:SCCF:11:1,2016-03-13T21:00:00Z,26.4679,-82.0631,1.74,23.25,2 
SCCF RECON,ioos:station:SCCF:11:1,2016-03-13T22:00:00Z,26.4679,-82.0631,1.74,23.29,2 
SCCF RECON,ioos:station:SCCF:11:1,2016-03-13T23:00:00Z,26.4679,-82.0631,1.74,23.77,2 
SCCF RECON,ioos:station:SCCF:11:1,2016-03-14T00:00:00Z,26.4679,-82.0631,1.74,24.45,2 
SCCF RECON,ioos:station:SCCF:11:1,2016-03-14T01:00:00Z,26.4679,-82.0631,1.74,24.34,2 
SCCF RECON,ioos:station:SCCF:11:1,2016-03-14T02:00:00Z,26.4679,-82.0631,1.74,24.41,2 
SCCF RECON,ioos:station:SCCF:11:1,2016-03-14T03:00:00Z,26.4679,-82.0631,1.74,24.31,2 
SCCF RECON,ioos:station:SCCF:11:1,2016-03-14T04:00:00Z,26.4679,-82.0631,1.74,24.27,2 
SCCF RECON,ioos:station:SCCF:11:1,2016-03-14T05:00:00Z,26.4679,-82.0631,1.74,23.96,2 
SCCF RECON,ioos:station:SCCF:11:1,2016-03-14T06:00:00Z,26.4679,-82.0631,1.74,23.43,2 
SCCF RECON,ioos:station:SCCF:11:1,2016-03-14T07:00:00Z,26.4679,-82.0631,1.74,23.23,2 
SCCF RECON,ioos:station:SCCF:11:1,2016-03-14T08:00:00Z,26.4679,-82.0631,1.74,23.22,2 
SCCF RECON,ioos:station:SCCF:11:1,2016-03-14T09:00:00Z,26.4679,-82.0631,1.74,23.15,2 
SCCF RECON,ioos:station:SCCF:11:1,2016-03-14T10:00:00Z,26.4679,-82.0631,1.74,23.17,2 
SCCF RECON,ioos:station:SCCF:11:1,2016-03-14T11:00:00Z,26.4679,-82.0631,1.74,23.1,2 
SCCF RECON,ioos:station:SCCF:11:1,2016-03-14T12:00:00Z,26.4679,-82.0631,1.74,23.07,2 
SCCF RECON,ioos:station:SCCF:11:1,2016-03-14T13:00:00Z,26.4679,-82.0631,1.74,23.11,2 
SCCF RECON,ioos:station:SCCF:11:1,2016-03-14T14:00:00Z,26.4679,-82.0631,1.74,23.16,2 
SCCF RECON,ioos:station:SCCF:11:1,2016-03-14T15:00:00Z,26.4679,-82.0631,1.74,23.18,2 
SCCF RECON,ioos:station:SCCF:11:1,2016-03-14T16:00:00Z,26.4679,-82.0631,1.74,23.7,2 
SCCF RECON,ioos:station:SCCF:11:1,2016-03-14T17:00:00Z,26.4679,-82.0631,1.74,23.76,2 
SCCF RECON,ioos:station:SCCF:11:1,2016-03-14T18:00:00Z,26.4679,-82.0631,1.74,24.52,2 
SCCF RECON,ioos:station:SCCF:11:1,2016-03-14T19:00:00Z,26.4679,-82.0631,1.74,23.66,2 
SCCF RECON,ioos:station:SCCF:11:1,2016-03-14T20:00:00Z,26.4679,-82.0631,1.74,24.12,2 
SCCF RECON,ioos:station:SCCF:11:1,2016-03-14T21:00:00Z,26.4679,-82.0631,1.74,23.92,2 
SCCF RECON,ioos:station:SCCF:11:1,2016-03-14T22:00:00Z,26.4679,-82.0631,1.74,23.89,2 
SCCF RECON,ioos:station:SCCF:11:1,2016-03-14T23:00:00Z,26.4679,-82.0631,1.74,24.14,2 
SCCF RECON,ioos:station:SCCF:11:1,2016-03-15T00:00:00Z,26.4679,-82.0631,1.74,24.66,2 
SCCF RECON,ioos:station:SCCF:11:1,2016-03-15T01:00:00Z,26.4679,-82.0631,1.74,25.48,2 
SCCF RECON,ioos:station:SCCF:11:1,2016-03-15T02:00:00Z,26.4679,-82.0631,1.74,25.46,2 
SCCF RECON,ioos:station:SCCF:11:1,2016-03-15T03:00:00Z,26.4679,-82.0631,1.74,25.42,2 
SCCF RECON,ioos:station:SCCF:11:1,2016-03-15T04:00:00Z,26.4679,-82.0631,1.74,25.33,2 
SCCF RECON,ioos:station:SCCF:11:1,2016-03-15T05:00:00Z,26.4679,-82.0631,1.74,25.25,2 
SCCF RECON,ioos:station:SCCF:11:1,2016-03-15T06:00:00Z,26.4679,-82.0631,1.74,24.72,2 
SCCF RECON,ioos:station:SCCF:11:1,2016-03-15T07:00:00Z,26.4679,-82.0631,1.74,24.38,2 
SCCF RECON,ioos:station:SCCF:11:1,2016-03-15T08:00:00Z,26.4679,-82.0631,1.74,24.02,2 
SCCF RECON,ioos:station:SCCF:11:1,2016-03-15T09:00:00Z,26.4679,-82.0631,1.74,24.11,2 
SCCF RECON,ioos:station:SCCF:11:1,2016-03-15T10:00:00Z,26.4679,-82.0631,1.74,24.12,2 
SCCF RECON,ioos:station:SCCF:11:1,2016-03-15T11:00:00Z,26.4679,-82.0631,1.74,24.16,2 
SCCF RECON,ioos:station:SCCF:11:1,2016-03-15T12:00:00Z,26.4679,-82.0631,1.74,24.11,2 
SCCF RECON,ioos:station:SCCF:11:1,2016-03-15T13:00:00Z,26.4679,-82.0631,1.74,24.11,2 
SCCF RECON,ioos:station:SCCF:11:1,2016-03-15T14:00:00Z,26.4679,-82.0631,1.74,24.14,2 
SCCF RECON,ioos:station:SCCF:11:1,2016-03-15T15:00:00Z,26.4679,-82.0631,1.74,24.1,2 
SCCF RECON,ioos:station:SCCF:11:1,2016-03-15T16:00:00Z,26.4679,-82.0631,1.74,24.26,2 
SCCF RECON,ioos:station:SCCF:11:1,2016-03-15T17:00:00Z,26.4679,-82.0631,1.74,24.51,2 
SCCF RECON,ioos:station:SCCF:11:1,2016-03-15T18:00:00Z,26.4679,-82.0631,1.74,24.84,2 
SCCF RECON,ioos:station:SCCF:11:1,2016-03-15T19:00:00Z,26.4679,-82.0631,1.74,25.19,2 
SCCF RECON,ioos:station:SCCF:11:1,2016-03-15T20:00:00Z,26.4679,-82.0631,1.74,26.36,2 
SCCF RECON,ioos:station:SCCF:11:1,2016-03-15T21:00:00Z,26.4679,-82.0631,1.74,25.77,2 
SCCF RECON,ioos:station:SCCF:11:1,2016-03-15T22:00:00Z,26.4679,-82.0631,1.74,25.42,2 
SCCF RECON,ioos:station:SCCF:11:1,2016-03-15T23:00:00Z,26.4679,-82.0631,1.74,24.94,2 
SCCF RECON,ioos:station:SCCF:11:1,2016-03-16T00:00:00Z,26.4679,-82.0631,1.74,24.81,2 
SCCF RECON,ioos:station:SCCF:11:1,2016-03-16T01:00:00Z,26.4679,-82.0631,1.74,26.11,2 
SCCF RECON,ioos:station:SCCF:11:1,2016-03-16T02:00:00Z,26.4679,-82.0631,1.74,26.4,2 
SCCF RECON,ioos:station:SCCF:11:1,2016-03-16T03:00:00Z,26.4679,-82.0631,1.74,26.22,2 
SCCF RECON,ioos:station:SCCF:11:1,2016-03-16T04:00:00Z,26.4679,-82.0631,1.74,26.29,2 
SCCF RECON,ioos:station:SCCF:11:1,2016-03-16T05:00:00Z,26.4679,-82.0631,1.74,26.23,2 
SCCF RECON,ioos:station:SCCF:11:1,2016-03-16T06:00:00Z,26.4679,-82.0631,1.74,26.15,2 
SCCF RECON,ioos:station:SCCF:11:1,2016-03-16T07:00:00Z,26.4679,-82.0631,1.74,25.72,2 
SCCF RECON,ioos:station:SCCF:11:1,2016-03-16T08:00:00Z,26.4679,-82.0631,1.74,25.89,2 
SCCF RECON,ioos:station:SCCF:11:1,2016-03-16T09:00:00Z,26.4679,-82.0631,1.74,25.51,2 
SCCF RECON,ioos:station:SCCF:11:1,2016-03-16T10:00:00Z,26.4679,-82.0631,1.74,25.17,2 
SCCF RECON,ioos:station:SCCF:11:1,2016-03-16T11:00:00Z,26.4679,-82.0631,1.74,25.21,2 
SCCF RECON,ioos:station:SCCF:11:1,2016-03-16T12:00:00Z,26.4679,-82.0631,1.74,25.18,2 
SCCF RECON,ioos:station:SCCF:11:1,2016-03-16T13:00:00Z,26.4679,-82.0631,1.74,25.15,2 
SCCF RECON,ioos:station:SCCF:11:1,2016-03-16T14:00:00Z,26.4679,-82.0631,1.74,25.16,2 
SCCF RECON,ioos:station:SCCF:11:1,2016-03-16T15:00:00Z,26.4679,-82.0631,1.74,25.15,2 
SCCF RECON,ioos:station:SCCF:11:1,2016-03-16T16:00:00Z,26.4679,-82.0631,1.74,25.22,2 
SCCF RECON,ioos:station:SCCF:11:1,2016-03-16T17:00:00Z,26.4679,-82.0631,1.74,25.75,2 
SCCF RECON,ioos:station:SCCF:11:1,2016-03-16T18:00:00Z,26.4679,-82.0631,1.74,25.98,2 
SCCF RECON,ioos:station:SCCF:11:1,2016-03-16T19:00:00Z,26.4679,-82.0631,1.74,27.13,2 
SCCF RECON,ioos:station:SCCF:11:1,2016-03-16T20:00:00Z,26.4679,-82.0631,1.74,26.99,2 
SCCF RECON,ioos:station:SCCF:11:1,2016-03-16T21:00:00Z,26.4679,-82.0631,1.74,27.29,2 
SCCF RECON,ioos:station:SCCF:11:1,2016-03-16T22:00:00Z,26.4679,-82.0631,1.74,26.92,2 
SCCF RECON,ioos:station:SCCF:11:1,2016-03-16T23:00:00Z,26.4679,-82.0631,1.74,26.76,2 
SCCF RECON,ioos:station:SCCF:11:1,2016-03-17T00:00:00Z,26.4679,-82.0631,1.74,26.98,2 
SCCF RECON,ioos:station:SCCF:11:1,2016-03-17T01:00:00Z,26.4679,-82.0631,1.74,25.59,2 
SCCF RECON,ioos:station:SCCF:11:1,2016-03-17T02:00:00Z,26.4679,-82.0631,1.74,26.37,2 
SCCF RECON,ioos:station:SCCF:11:1,2016-03-17T03:00:00Z,26.4679,-82.0631,1.74,26.79,2 
SCCF RECON,ioos:station:SCCF:11:1,2016-03-17T04:00:00Z,26.4679,-82.0631,1.74,26.69,2 
SCCF RECON,ioos:station:SCCF:11:1,2016-03-17T05:00:00Z,26.4679,-82.0631,1.74,26.84,2 
SCCF RECON,ioos:station:SCCF:11:1,2016-03-17T06:00:00Z,26.4679,-82.0631,1.74,26.78,2 
SCCF RECON,ioos:station:SCCF:11:1,2016-03-17T07:00:00Z,26.4679,-82.0631,1.74,26.71,2 
SCCF RECON,ioos:station:SCCF:11:1,2016-03-17T08:00:00Z,26.4679,-82.0631,1.74,26.33,2 
SCCF RECON,ioos:station:SCCF:11:1,2016-03-17T09:00:00Z,26.4679,-82.0631,1.74,26.45,2 
SCCF RECON,ioos:station:SCCF:11:1,2016-03-17T10:00:00Z,26.4679,-82.0631,1.74,26.05,2 
SCCF RECON,ioos:station:SCCF:11:1,2016-03-17T11:00:00Z,26.4679,-82.0631,1.74,25.22,2 
SCCF RECON,ioos:station:SCCF:11:1,2016-03-17T12:00:00Z,26.4679,-82.0631,1.74,25.19,2 
SCCF RECON,ioos:station:SCCF:11:1,2016-03-17T13:00:00Z,26.4679,-82.0631,1.74,25.23,2 
SCCF RECON,ioos:station:SCCF:11:1,2016-03-17T14:00:00Z,26.4679,-82.0631,1.74,25.34,2 
SCCF RECON,ioos:station:SCCF:11:1,2016-03-17T15:00:00Z,26.4679,-82.0631,1.74,25.4,2 
SCCF RECON,ioos:station:SCCF:11:1,2016-03-17T16:00:00Z,26.4679,-82.0631,1.74,25.49,2 
SCCF RECON,ioos:station:SCCF:11:1,2016-03-17T17:00:00Z,26.4679,-82.0631,1.74,25.56,2 
SCCF RECON,ioos:station:SCCF:11:1,2016-03-17T18:00:00Z,26.4679,-82.0631,1.74,25.53,2 
SCCF RECON,ioos:station:SCCF:11:1,2016-03-17T19:00:00Z,26.4679,-82.0631,1.74,25.66,2 
SCCF RECON,ioos:station:SCCF:11:1,2016-03-17T20:00:00Z,26.4679,-82.0631,1.74,25.68,2 
SCCF RECON,ioos:station:SCCF:11:1,2016-03-17T21:00:00Z,26.4679,-82.0631,1.74,26.73,2 
SCCF RECON,ioos:station:SCCF:11:1,2016-03-17T22:00:00Z,26.4679,-82.0631,1.74,27.04,2 
SCCF RECON,ioos:station:SCCF:11:1,2016-03-17T23:00:00Z,26.4679,-82.0631,1.74,26.08,2 
SCCF RECON,ioos:station:SCCF:11:1,2016-03-18T00:00:00Z,26.4679,-82.0631,1.74,26.06,2 
SCCF RECON,ioos:station:SCCF:11:1,2016-03-18T01:00:00Z,26.4679,-82.0631,1.74,25.56,2 
SCCF RECON,ioos:station:SCCF:11:1,2016-03-18T02:00:00Z,26.4679,-82.0631,1.74,25.48,2 
SCCF RECON,ioos:station:SCCF:11:1,2016-03-18T03:00:00Z,26.4679,-82.0631,1.74,25.4,2 
SCCF RECON,ioos:station:SCCF:11:1,2016-03-18T04:00:00Z,26.4679,-82.0631,1.74,25.48,2 
SCCF RECON,ioos:station:SCCF:11:1,2016-03-18T05:00:00Z,26.4679,-82.0631,1.74,26.4,2 
SCCF RECON,ioos:station:SCCF:11:1,2016-03-18T06:00:00Z,26.4679,-82.0631,1.74,26.37,2 
SCCF RECON,ioos:station:SCCF:11:1,2016-03-18T07:00:00Z,26.4679,-82.0631,1.74,26.26,2 
SCCF RECON,ioos:station:SCCF:11:1,2016-03-18T08:00:00Z,26.4679,-82.0631,1.74,26.2,2 
SCCF RECON,ioos:station:SCCF:11:1,2016-03-18T09:00:00Z,26.4679,-82.0631,1.74,26.16,2 
SCCF RECON,ioos:station:SCCF:11:1,2016-03-18T10:00:00Z,26.4679,-82.0631,1.74,25.81,2 
SCCF RECON,ioos:station:SCCF:11:1,2016-03-18T11:00:00Z,26.4679,-82.0631,1.74,25.91,2 
SCCF RECON,ioos:station:SCCF:11:1,2016-03-18T12:00:00Z,26.4679,-82.0631,1.74,25.3,2 
SCCF RECON,ioos:station:SCCF:11:1,2016-03-18T13:00:00Z,26.4679,-82.0631,1.74,25.19,2 
SCCF RECON,ioos:station:SCCF:11:1,2016-03-18T14:00:00Z,26.4679,-82.0631,1.74,25.29,2 
SCCF RECON,ioos:station:SCCF:11:1,2016-03-18T15:00:00Z,26.4679,-82.0631,1.74,25.39,2 
SCCF RECON,ioos:station:SCCF:11:1,2016-03-18T16:00:00Z,26.4679,-82.0631,1.74,25.48,2 
SCCF RECON,ioos:station:SCCF:11:1,2016-03-18T17:00:00Z,26.4679,-82.0631,1.74,25.5,2 
SCCF RECON,ioos:station:SCCF:11:1,2016-03-18T18:00:00Z,26.4679,-82.0631,1.74,25.5,2 
SCCF RECON,ioos:station:SCCF:11:1,2016-03-18T19:00:00Z,26.4679,-82.0631,1.74,25.5,2 
SCCF RECON,ioos:station:SCCF:11:1,2016-03-18T20:00:00Z,26.4679,-82.0631,1.74,25.55,2 
SCCF RECON,ioos:station:SCCF:11:1,2016-03-18T21:00:00Z,26.4679,-82.0631,1.74,25.8,2 
SCCF RECON,ioos:station:SCCF:11:1,2016-03-18T22:00:00Z,26.4679,-82.0631,1.74,25.79,2 
SCCF RECON,ioos:station:SCCF:11:1,2016-03-18T23:00:00Z,26.4679,-82.0631,1.74,26.08,2 
SCCF RECON,ioos:station:SCCF:11:1,2016-03-19T00:00:00Z,26.4679,-82.0631,1.74,26.28,2 
SCCF RECON,ioos:station:SCCF:11:1,2016-03-19T01:00:00Z,26.4679,-82.0631,1.74,26.29,2 
SCCF RECON,ioos:station:SCCF:11:1,2016-03-19T02:00:00Z,26.4679,-82.0631,1.74,26.22,2 
SCCF RECON,ioos:station:SCCF:11:1,2016-03-19T03:00:00Z,26.4679,-82.0631,1.74,26.17,2 
SCCF RECON,ioos:station:SCCF:11:1,2016-03-19T04:00:00Z,26.4679,-82.0631,1.74,26.0,2 
SCCF RECON,ioos:station:SCCF:11:1,2016-03-19T05:00:00Z,26.4679,-82.0631,1.74,25.84,2 
SCCF RECON,ioos:station:SCCF:11:1,2016-03-19T06:00:00Z,26.4679,-82.0631,1.74,26.24,2 
SCCF RECON,ioos:station:SCCF:11:1,2016-03-19T07:00:00Z,26.4679,-82.0631,1.74,26.24,2 
SCCF RECON,ioos:station:SCCF:11:1,2016-03-19T08:00:00Z,26.4679,-82.0631,1.74,26.2,2 
SCCF RECON,ioos:station:SCCF:11:1,2016-03-19T09:00:00Z,26.4679,-82.0631,1.74,26.38,2 
SCCF RECON,ioos:station:SCCF:11:1,2016-03-19T10:00:00Z,26.4679,-82.0631,1.74,26.23,2 
SCCF RECON,ioos:station:SCCF:11:1,2016-03-19T11:00:00Z,26.4679,-82.0631,1.74,26.21,2 
SCCF RECON,ioos:station:SCCF:11:1,2016-03-19T12:00:00Z,26.4679,-82.0631,1.74,25.99,2 
SCCF RECON,ioos:station:SCCF:11:1,2016-03-19T13:00:00Z,26.4679,-82.0631,1.74,25.37,2 
SCCF RECON,ioos:station:SCCF:11:1,2016-03-19T14:00:00Z,26.4679,-82.0631,1.74,25.48,2 
SCCF RECON,ioos:station:SCCF:11:1,2016-03-19T15:00:00Z,26.4679,-82.0631,1.74,25.51,2 
SCCF RECON,ioos:station:SCCF:11:1,2016-03-19T16:00:00Z,26.4679,-82.0631,1.74,25.59,2 
SCCF RECON,ioos:station:SCCF:11:1,2016-03-19T17:00:00Z,26.4679,-82.0631,1.74,25.53,2 
SCCF RECON,ioos:station:SCCF:11:1,2016-03-19T18:00:00Z,26.4679,-82.0631,1.74,25.54,2 
SCCF RECON,ioos:station:SCCF:11:1,2016-03-19T19:00:00Z,26.4679,-82.0631,1.74,25.76,2 
SCCF RECON,ioos:station:SCCF:11:1,2016-03-19T20:00:00Z,26.4679,-82.0631,1.74,25.95,2 
SCCF RECON,ioos:station:SCCF:11:1,2016-03-19T21:00:00Z,26.4679,-82.0631,1.74,26.2,2 
SCCF RECON,ioos:station:SCCF:11:1,2016-03-19T22:00:00Z,26.4679,-82.0631,1.74,26.25,2 
SCCF RECON,ioos:station:SCCF:11:1,2016-03-19T23:00:00Z,26.4679,-82.0631,1.74,26.01,2 
SCCF RECON,ioos:station:SCCF:11:1,2016-03-20T00:00:00Z,26.4679,-82.0631,1.74,25.65,2 
SCCF RECON,ioos:station:SCCF:11:1,2016-03-20T01:00:00Z,26.4679,-82.0631,1.74,25.72,2 
SCCF RECON,ioos:station:SCCF:11:1,2016-03-20T02:00:00Z,26.4679,-82.0631,1.74,25.6,2 
SCCF RECON,ioos:station:SCCF:11:1,2016-03-20T03:00:00Z,26.4679,-82.0631,1.74,25.65,2 
SCCF RECON,ioos:station:SCCF:11:1,2016-03-20T04:00:00Z,26.4679,-82.0631,1.74,25.68,2 
SCCF RECON,ioos:station:SCCF:11:1,2016-03-20T05:00:00Z,26.4679,-82.0631,1.74,25.58,2 
SCCF RECON,ioos:station:SCCF:11:1,2016-03-20T06:00:00Z,26.4679,-82.0631,1.74,25.67,2 
SCCF RECON,ioos:station:SCCF:11:1,2016-03-20T07:00:00Z,26.4679,-82.0631,1.74,25.43,2 
SCCF RECON,ioos:station:SCCF:11:1,2016-03-20T08:00:00Z,26.4679,-82.0631,1.74,25.49,2 
SCCF RECON,ioos:station:SCCF:11:1,2016-03-20T09:00:00Z,26.4679,-82.0631,1.74,25.51,2 
SCCF RECON,ioos:station:SCCF:11:1,2016-03-20T10:00:00Z,26.4679,-82.0631,1.74,25.52,2 
SCCF RECON,ioos:station:SCCF:11:1,2016-03-20T11:00:00Z,26.4679,-82.0631,1.74,25.49,2 
SCCF RECON,ioos:station:SCCF:11:1,2016-03-20T12:00:00Z,26.4679,-82.0631,1.74,25.25,2 
SCCF RECON,ioos:station:SCCF:11:1,2016-03-20T13:00:00Z,26.4679,-82.0631,1.74,25.36,2 
SCCF RECON,ioos:station:SCCF:11:1,2016-03-20T14:00:00Z,26.4679,-82.0631,1.74,25.16,2 
SCCF RECON,ioos:station:SCCF:11:1,2016-03-20T15:00:00Z,26.4679,-82.0631,1.74,25.11,2 
SCCF RECON,ioos:station:SCCF:11:1,2016-03-20T16:00:00Z,26.4679,-82.0631,1.74,25.13,2 
SCCF RECON,ioos:station:SCCF:11:1,2016-03-20T17:00:00Z,26.4679,-82.0631,1.74,25.23,2 
SCCF RECON,ioos:station:SCCF:11:1,2016-03-20T18:00:00Z,26.4679,-82.0631,1.74,25.23,2 
SCCF RECON,ioos:station:SCCF:11:1,2016-03-20T19:00:00Z,26.4679,-82.0631,1.74,25.76,2 
SCCF RECON,ioos:station:SCCF:11:1,2016-03-20T20:00:00Z,26.4679,-82.0631,1.74,25.77,2 
SCCF RECON,ioos:station:SCCF:11:1,2016-03-20T21:00:00Z,26.4679,-82.0631,1.74,25.85,2 
SCCF RECON,ioos:station:SCCF:11:1,2016-03-20T22:00:00Z,26.4679,-82.0631,1.74,25.76,2 
SCCF RECON,ioos:station:SCCF:11:1,2016-03-20T23:00:00Z,26.4679,-82.0631,1.74,25.6,2 
SCCF RECON,ioos:station:SCCF:11:1,2016-03-21T00:00:00Z,26.4679,-82.0631,1.74,25.44,2 
SCCF RECON,ioos:station:SCCF:11:1,2016-03-21T01:00:00Z,26.4679,-82.0631,1.74,25.41,2 
SCCF RECON,ioos:station:SCCF:11:1,2016-03-21T02:00:00Z,26.4679,-82.0631,1.74,25.27,2 
SCCF RECON,ioos:station:SCCF:11:1,2016-03-21T03:00:00Z,26.4679,-82.0631,1.74,25.14,2 
SCCF RECON,ioos:station:SCCF:11:1,2016-03-21T04:00:00Z,26.4679,-82.0631,1.74,25.12,2 
SCCF RECON,ioos:station:SCCF:11:1,2016-03-21T05:00:00Z,26.4679,-82.0631,1.74,24.75,2 
SCCF RECON,ioos:station:SCCF:11:1,2016-03-21T06:00:00Z,26.4679,-82.0631,1.74,24.59,2 
SCCF RECON,ioos:station:SCCF:11:1,2016-03-21T07:00:00Z,26.4679,-82.0631,1.74,24.35,2 
SCCF RECON,ioos:station:SCCF:11:1,2016-03-21T08:00:00Z,26.4679,-82.0631,1.74,24.0,2 
SCCF RECON,ioos:station:SCCF:11:1,2016-03-21T09:00:00Z,26.4679,-82.0631,1.74,23.69,2 
SCCF RECON,ioos:station:SCCF:11:1,2016-03-21T10:00:00Z,26.4679,-82.0631,1.74,23.36,2 